Temperature
18 17 17 17 17 17 17 17 18 18 19 18 18 17 17 17 17 17 17 17 17 17 17 17 17 17 17 17 17 16 16 16 16 16 16 15 15 15
18 18 17 17 17 17 17 17 17 17 18 18 17 17 17 17 17 17 17 17 17 17 17 17 17 17 17 17 16 16 16 16 16 16 15 15 15 15
18 17 17 17 17 17 17 17 17 17 17 17 17 17 17 17 17 17 16 17 17 17 17 17 17 17 16 16 16 16 16 16 15 15 15 15 15 15
17 17 17 17 17 17 17 17 17 17 17 17 17 17 16 16 16 16 16 16 16 16 16 16 16 16 16 16 16 16 15 15 15 15 15 15 15 15
17 17 17 17 17 17 17 17 17 17 16 16 16 16 16 16 16 16 16 16 16 16 16 16 16 16 16 16 16 15 15 15 15 15 15 15 15 15
17 17 17 17 17 17 17 17 16 16 16 16 16 16 16 16 15 15 15 15 15 16 16 16 16 16 16 16 15 15 15 15 15 15 14 14 14 14
17 17 16 17 17 16 16 16 16 16 16 16 16 16 16 15 15 15 15 15 15 15 15 15 15 15 15 15 15 15 15 15 14 14 14 14 14 14
16 16 16 16 16 16 16 16 16 16 16 16 16 15 15 15 15 15 15 15 15 15 15 15 15 14 15 15 15 15 15 14 14 14 14 14 14 14
16 16 16 16 16 15 16 15 15 15 15 15 15 15 14 14 14 14 14 14 14 14 14 14 14 14 14 14 14 14 14 14 14 14 14 14 14 13
15 15 15 15 15 15 15 15 15 15 15 14 14 14 14 14 14 14 14 14 14 14 14 14 14 14 14 14 14 14 14 14 14 13 13 13 13 13
15 15 15 15 15 15 14 14 14 14 14 14 14 14 14 14 14 13 13 13 14 14 13 13 14 13 13 13 13 13 13 13 13 13 13 13 13 12
14 14 14 14 14 14 14 14 14 14 13 13 13 13 13 13 13 13 13 13 13 13 13 13 13 13 13 13 13 13 13 13 13 13 12 12 12 12
14 14 14 14 14 14 13 13 13 13 13 13 13 13 13 13 13 13 13 12 13 13 13 12 12 13 13 13 13 12 12 12 12 12 12 12 12 12
13 13 13 13 13 13 13 13 13 13 12 12 13 13 12 12 12 12 12 12 12 12 12 12 12 12 12 12 12 12 12 12 12 11 11 11 11 11
13 13 13 13 13 13 12 12 12 12 12 12 12 12 12 12 12 12 12 12 12 12 12 12 11 11 12 12 12 12 12 12 11 11 11 11 11 11
12 12 12 12 12 12 12 12 12 12 12 11 11 12 11 11 11 11 11 11 11 11 11 11 11 11 11 11 12 12 12 11 11 11 11 11 11 11
12 11 11 11 11 11 11 11 11 11 11 11 11 11 11 11 11 11 11 11 11 11 11 11 11 11 11 11 11 11 11 11 11 11 10 10 10 10
11 11 11 11 11 11 11 11 11 11 10 10 10 11 11 11 10 11 11 10 11 11 11 11 11 11 11 10 11 10 11 11 11 10 10 10 10 10
11 11 11 10 10 10 10 10 10 10 10 10 10 10 10 10 10 10 10 10 10 10 10 10 10 10 10 11 11 11 10 10 10 10 10 10 10 10
10 10 10 10 10 10 10 10 10 10 9 10 10 10 10 10 10 10 10 9 10 10 10 10 10 10 10 10 10 10 10 10 10 10 10 10 10 9
10 10 10 10 9 9 9 9 9 9 9 9 9 9 9 9 9 9 9 9 9 9 9 9 9 9 9 9 9 10 10 10 9 9 9 9 9 9
9 9 9 9 9 9 9 8 8 8 8 8 9 9 9 9 9 9 9 9 9 9 9 9 9 9 9 9 9 9 9 9 9 9 9 9 8 9
9 9 9 9 8 8 8 8 8 8 8 8 8 8 8 8 8 8 8 8 8 8 8 8 8 8 8 9 9 9 9 9 9 9 8 8 8 8
Wind_Speed
8 8 7 6 6 6 6 6 7 7 6 4 4 3 3 3 3 4 4 6 8 8 8 7 7 7 7 7 7 7 7 8 8 8 8 9 9 9
6 7 7 7 5 6 6 6 7 7 6 4 3 3 3 3 4 5 5 7 9 9 9 8 8 7 7 7 7 7 7 7 7 7 7 7 7 8
7 8 8 7 6 6 6 6 7 7 7 6 5 4 4 5 4 5 6 6 6 11 11 9 8 8 8 8 8 8 8 7 7 7 7 8 7 7
8 8 8 7 7 6 6 7 7 7 8 8 6 5 6 6 5 6 5 5 5 8 11 10 9 9 9 9 9 8 8 8 8 8 8 8 8 7
8 8 8 7 7 6 7 7 7 7 7 7 7 5 5 5 5 6 6 4 5 6 10 11 11 10 10 10 9 9 9 8 8 8 8 8 8 8
7 7 7 7 7 7 7 7 7 7 7 7 6 5 5 5 5 5 5 5 5 4 5 6 9 11 11 11 10 10 10 9 9 8 8 8 8 8
6 6 6 5 5 5 5 5 6 7 7 7 7 6 6 5 6 5 5 5 5 5 5 5 6 7 9 11 11 11 11 10 10 9 9 9 9 8
6 6 5 5 5 6 5 5 4 6 7 7 7 6 6 6 5 6 6 6 6 5 5 6 5 5 5 6 8 12 12 11 10 10 10 10 9 9
5 5 5 4 5 5 6 7 6 6 6 7 7 7 6 6 6 7 6 7 6 4 5 7 5 6 5 6 10 12 12 11 10 10 9 10 9 9
5 5 5 4 4 5 5 5 6 6 7 7 7 7 6 5 6 7 6 7 7 6 5 6 5 5 5 5 11 12 12 11 11 10 10 9 9 9
5 4 4 4 3 3 5 5 5 5 5 5 6 5 4 5 5 6 6 6 6 6 5 6 5 5 5 5 7 12 12 11 11 11 11 10 10 9
4 4 3 3 3 4 5 5 5 5 5 5 6 7 7 7 8 8 7 7 7 6 4 5 5 4 4 4 3 6 8 10 12 12 12 11 10 8
3 3 2 3 3 5 6 5 5 5 6 6 6 6 6 6 7 7 7 7 7 6 4 5 5 5 5 4 4 4 5 5 7 8 11 12 12 9
4 3 1 2 2 4 4 3 5 5 5 5 5 5 5 5 5 6 7 7 7 8 6 6 6 6 6 6 4 4 5 5 5 5 6 10 12 12
2 1 0 2 3 4 5 6 6 4 4 5 5 5 5 4 4 4 6 7 8 8 8 8 8 7 7 7 6 5 4 5 6 6 5 6 6 6
1 2 4 6 5 3 3 4 4 3 4 5 5 4 4 4 5 5 5 5 6 6 6 7 8 8 8 8 6 6 5 5 5 6 6 6 7 7
1 2 2 2 2 3 3 3 3 4 4 4 5 5 5 5 5 4 4 5 6 6 5 5 6 7 8 8 7 7 6 6 5 5 6 7 7 7
3 3 3 3 3 3 3 3 4 4 4 4 5 5 5 5 5 5 5 5 6 6 5 5 5 5 6 6 7 8 7 6 6 5 7 7 8 7
3 3 3 3 3 3 4 4 4 3 4 4 5 5 5 5 5 5 5 5 5 5 5 5 5 5 7 7 6 6 7 6 5 5 6 7 7 6
2 3 3 3 3 3 4 4 4 3 4 4 4 5 5 5 5 5 5 5 5 5 5 5 5 5 7 8 7 6 8 7 6 6 6 6 5 3
3 3 3 3 3 3 4 4 4 4 4 4 4 4 5 5 5 5 5 5 6 5 6 6 5 6 7 6 6 6 5 7 7 6 6 6 5 5
3 3 3 3 3 3 4 4 4 4 4 4 4 4 4 5 5 5 5 5 5 5 6 6 5 6 6 7 7 7 7 5 5 7 7 6 5 6
3 3 3 3 3 3 4 4 5 5 4 4 4 4 4 4 5 4 5 5 5 5 6 5 5 5 5 6 6 6 6 6 5 4 4 5 7 6
Wind_Direction
230 228 236 242 244 249 250 251 260 268 265 241 242 246 239 239 203 226 218 188 195 205 208 209 208 204 202 201 202 202 202 204 208 211 211 213 216 226
236 243 242 244 244 246 247 245 247 256 266 264 242 255 255 254 212 230 218 179 194 201 204 204 205 204 201 198 198 195 190 192 197 199 200 201 208 220
233 234 236 243 242 242 243 243 242 244 252 257 250 241 241 253 245 236 226 217 204 194 197 199 201 203 202 201 199 196 194 196 201 202 202 203 209 216
233 235 238 234 232 242 244 246 246 245 245 249 246 239 234 233 234 240 236 229 227 185 190 197 201 203 203 203 202 200 201 202 203 206 206 206 210 215
237 235 236 236 236 235 239 245 245 243 240 245 245 241 241 228 225 232 236 238 239 196 190 197 201 201 200 199 199 200 202 205 207 209 210 210 211 213
245 242 241 237 236 236 237 242 246 248 242 243 246 242 238 231 229 237 238 229 241 234 215 208 197 198 200 198 199 201 202 205 209 212 213 213 212 213
243 245 247 244 250 249 250 241 240 242 241 239 240 243 239 233 232 239 246 244 238 245 239 224 208 213 204 201 203 204 202 203 206 209 212 214 213 213
243 246 242 230 224 219 240 256 257 247 247 245 242 240 243 240 244 248 248 249 252 238 247 247 233 232 223 217 192 192 197 200 202 205 207 211 213 214
242 246 251 240 226 233 221 216 229 244 254 256 253 249 243 240 242 245 249 258 265 257 249 251 239 240 234 205 175 183 189 195 199 202 206 208 212 216
238 241 246 252 248 247 243 241 237 233 234 239 248 251 249 250 241 246 250 249 258 254 245 257 252 251 247 211 174 183 189 193 195 198 203 207 212 220
240 244 244 244 252 253 242 245 246 246 229 222 236 243 248 241 245 245 245 248 255 252 239 252 257 255 248 233 190 183 187 191 195 199 203 208 215 222
235 235 221 232 240 250 240 241 246 255 254 236 226 226 230 224 220 235 244 247 255 254 233 241 249 251 253 241 222 196 198 195 199 203 205 206 211 225
252 252 237 166 212 243 254 253 255 265 261 251 241 237 233 230 226 225 239 247 254 257 243 232 248 249 248 250 243 228 215 208 203 207 207 205 207 220
265 281 337 131 245 256 252 252 256 255 255 253 248 245 241 239 235 234 234 242 251 258 260 246 252 252 252 255 253 235 227 219 213 215 211 199 208 213
273 35 337 237 257 252 226 235 242 247 249 254 255 258 259 256 253 245 240 239 243 245 242 241 247 246 247 252 254 247 242 234 220 223 220 215 216 220
231 160 192 221 237 248 240 236 250 255 254 259 265 270 269 259 252 253 252 244 246 243 231 235 243 245 246 247 248 247 241 238 233 230 230 230 226 225
296 243 246 249 248 247 249 249 248 243 244 252 257 260 263 265 261 254 254 254 251 253 249 236 236 238 246 249 250 248 246 244 237 227 233 240 236 231
248 245 250 253 255 256 256 255 254 255 256 254 254 258 261 263 264 261 252 251 253 253 254 252 245 246 247 248 243 249 248 246 244 233 238 244 242 233
239 251 258 261 266 270 268 266 264 267 272 263 263 265 267 267 264 261 259 257 257 257 258 255 248 248 251 254 245 228 248 253 248 245 242 248 253 245
256 267 273 276 278 280 280 280 280 279 274 267 263 265 266 265 266 265 260 258 259 257 258 258 252 250 254 262 265 258 226 240 247 250 254 260 270 257
279 279 278 276 275 277 281 282 281 283 288 283 273 274 274 269 267 265 265 255 255 256 258 261 264 261 264 262 259 258 248 221 233 247 249 251 259 252
276 277 278 277 276 275 274 275 274 274 275 276 279 280 284 283 276 270 270 265 260 261 267 269 263 256 252 252 256 260 258 248 224 214 224 237 249 248
280 282 279 277 274 270 271 272 276 277 276 275 280 283 288 290 289 285 281 277 278 275 267 266 266 261 257 253 258 262 262 259 259 246 240 207 205 215
Height
1536 1536 1536 1537 1537 1538 1538 1538 1539 1538 1537 1537 1537 1537 1536 1536 1535 1534 1534 1534 1534 1534 1534 1534 1534 1533 1533 1533 1533 1533 1533 1533 1534 1534 1534 1535 1536 1536
1532 1532 1532 1533 1534 1534 1534 1534 1534 1535 1534 1533 1533 1533 1533 1533 1532 1531 1531 1530 1530 1530 1530 1530 1530 1530 1530 1530 1529 1529 1530 1530 1530 1530 1531 1531 1532 1532
1528 1528 1528 1529 1530 1530 1530 1530 1530 1530 1530 1529 1530 1529 1528 1528 1528 1528 1528 1527 1527 1527 1527 1526 1526 1526 1526 1526 1526 1526 1526 1527 1527 1527 1528 1528 1528 1529
1524 1524 1524 1525 1525 1526 1526 1526 1526 1526 1526 1525 1525 1525 1525 1524 1524 1524 1525 1525 1524 1523 1523 1523 1522 1523 1523 1523 1523 1523 1523 1524 1524 1524 1524 1524 1525 1525
1520 1520 1520 1521 1521 1521 1521 1522 1522 1522 1522 1522 1521 1522 1521 1521 1521 1521 1521 1521 1521 1520 1520 1519 1519 1519 1519 1519 1519 1519 1520 1520 1520 1520 1521 1521 1521 1521
1515 1515 1516 1516 1516 1516 1517 1516 1517 1517 1517 1517 1518 1518 1518 1517 1517 1518 1518 1517 1517 1517 1516 1516 1515 1515 1515 1515 1515 1515 1516 1516 1516 1517 1517 1517 1517 1517
1510 1510 1510 1510 1511 1511 1512 1512 1512 1512 1513 1513 1513 1513 1514 1514 1514 1514 1514 1514 1513 1513 1513 1513 1512 1511 1511 1511 1511 1511 1511 1512 1512 1512 1513 1513 1513 1513
1506 1506 1506 1506 1506 1506 1507 1507 1507 1507 1507 1508 1508 1508 1508 1509 1509 1509 1510 1510 1509 1510 1509 1508 1509 1508 1507 1507 1507 1507 1507 1507 1508 1508 1509 1509 1509 1509
1501 1501 1502 1502 1502 1502 1501 1501 1501 1502 1503 1503 1503 1503 1503 1504 1504 1505 1504 1504 1504 1505 1504 1504 1504 1503 1504 1503 1503 1503 1503 1503 1504 1504 1504 1504 1504 1504
1497 1497 1497 1497 1497 1497 1497 1497 1496 1497 1497 1498 1498 1498 1499 1499 1499 1499 1499 1499 1499 1499 1500 1500 1499 1499 1499 1499 1498 1498 1499 1499 1499 1499 1499 1500 1500 1500
1493 1493 1493 1492 1492 1492 1492 1492 1492 1492 1493 1493 1493 1493 1493 1494 1494 1495 1495 1496 1495 1495 1495 1495 1495 1495 1495 1495 1494 1494 1494 1494 1494 1494 1495 1495 1495 1495
1489 1489 1488 1488 1488 1488 1488 1488 1487 1487 1488 1489 1489 1488 1489 1489 1489 1489 1490 1491 1491 1491 1490 1490 1490 1491 1491 1490 1490 1490 1490 1489 1490 1490 1490 1490 1491 1491
1486 1486 1485 1485 1484 1484 1484 1484 1484 1483 1484 1484 1484 1484 1484 1484 1484 1484 1484 1485 1486 1486 1486 1486 1486 1486 1487 1486 1486 1486 1486 1486 1486 1485 1486 1486 1486 1486
1482 1482 1482 1481 1481 1480 1479 1479 1480 1480 1480 1480 1480 1480 1480 1480 1480 1479 1479 1479 1479 1480 1480 1481 1481 1481 1482 1482 1482 1482 1482 1482 1482 1482 1482 1482 1482 1482
1477 1477 1477 1477 1476 1476 1476 1476 1476 1476 1476 1476 1476 1476 1476 1476 1475 1475 1474 1474 1474 1474 1475 1475 1476 1477 1478 1478 1477 1477 1478 1478 1478 1478 1478 1477 1477 1477
1474 1473 1473 1473 1473 1472 1472 1472 1472 1472 1472 1472 1472 1472 1472 1471 1471 1470 1470 1470 1470 1470 1470 1470 1470 1471 1472 1473 1473 1472 1472 1473 1473 1473 1473 1473 1473 1473
1470 1470 1471 1471 1470 1470 1470 1469 1469 1469 1469 1468 1468 1468 1468 1467 1466 1466 1466 1466 1466 1465 1465 1465 1466 1466 1467 1468 1468 1467 1468 1468 1469 1468 1468 1468 1468 1468
1468 1468 1468 1468 1467 1467 1467 1467 1466 1466 1465 1465 1465 1464 1464 1463 1462 1462 1461 1461 1461 1461 1461 1461 1461 1462 1462 1462 1463 1462 1463 1463 1464 1464 1464 1464 1463 1463
1465 1465 1465 1465 1465 1465 1464 1464 1463 1463 1462 1461 1461 1460 1459 1459 1458 1457 1457 1457 1456 1456 1456 1457 1457 1457 1457 1457 1456 1458 1458 1458 1458 1459 1459 1459 1458 1458
1462 1462 1462 1462 1462 1462 1461 1461 1460 1459 1458 1457 1457 1456 1456 1455 1454 1453 1453 1452 1452 1451 1451 1452 1452 1452 1452 1452 1452 1452 1452 1453 1453 1453 1453 1453 1453 1453
1460 1460 1460 1460 1459 1459 1458 1457 1456 1455 1454 1454 1453 1452 1452 1451 1450 1449 1448 1448 1447 1447 1447 1447 1446 1447 1447 1448 1448 1447 1447 1447 1447 1447 1447 1447 1447 1447
1457 1457 1457 1456 1456 1455 1455 1454 1453 1452 1451 1450 1449 1448 1448 1447 1445 1445 1444 1444 1443 1442 1442 1442 1442 1442 1443 1443 1442 1442 1442 1442 1441 1441 1441 1442 1441 1441
1454 1454 1454 1453 1452 1452 1451 1451 1450 1449 1448 1447 1446 1444 1444 1443 1442 1441 1440 1440 1439 1439 1438 1438 1438 1438 1437 1438 1438 1437 1437 1437 1437 1436 1437 1436 1437 1437